Wind_Speed
11 13 14 15 15 16 16 16 17 17 18 18 18 18 18 19 19 19 20 20 20 19 19 20 20 20 21 21 21 21 21 21 21 21 21 22 22 22 23 23 24 24 24
10 12 13 14 15 16 17 18 18 19 20 20 20 20 21 21 22 22 22 22 22 22 23 23 23 23 24 24 24 24 24 24 24 24 24 24 25 25 25 26 26 27 27
9 11 13 14 15 17 18 19 20 20 21 22 22 23 23 24 24 25 25 25 25 25 25 26 26 26 26 27 27 27 28 28 28 28 28 28 28 29 29 29 30 30 30
11 12 14 15 16 17 19 19 21 22 23 23 24 25 26 26 27 27 27 27 28 28 28 29 29 29 30 30 30 31 31 31 31 31 31 32 32 33 33 33 33 33 33
12 14 16 17 18 19 20 21 22 23 24 25 26 27 28 28 29 29 29 30 31 31 31 32 32 33 33 34 34 34 34 34 34 34 34 35 35 36 37 37 36 36 35
14 15 16 17 17 18 20 22 23 24 25 26 27 29 29 30 32 32 32 33 34 34 34 35 35 36 36 37 37 37 37 37 38 38 39 38 38 39 40 40 40 39 38
17 17 17 18 19 20 22 22 23 24 25 27 29 30 30 31 32 34 34 33 34 34 36 37 37 38 39 40 40 40 40 41 42 42 43 42 42 43 44 45 45 45 43
18 19 20 21 22 24 24 24 25 26 27 29 30 31 32 33 34 35 36 36 35 37 38 39 41 41 41 42 43 43 43 44 45 46 46 45 46 46 47 48 49 49 47
21 23 23 24 25 25 25 26 28 29 31 32 32 34 35 36 37 37 39 39 40 40 41 43 43 44 44 44 45 45 46 46 47 48 49 49 50 50 51 52 53 53 52
24 25 26 27 27 28 28 29 30 33 34 34 34 37 38 38 39 40 40 40 41 42 42 43 43 44 46 47 47 48 48 49 50 51 52 53 54 55 56 57 57 58 58
26 27 27 29 30 31 32 32 33 34 35 36 37 38 38 39 40 40 40 41 42 42 43 44 45 46 48 49 50 51 52 53 53 54 55 57 58 59 60 62 63 64 64
28 29 30 31 32 33 34 35 35 36 36 37 38 38 39 40 41 41 41 42 43 44 45 46 48 49 51 52 53 55 57 58 59 60 61 62 64 65 66 67 68 69 69
31 31 33 34 34 35 35 35 36 37 38 39 40 41 41 41 42 43 44 46 47 48 49 51 52 54 55 57 58 60 62 63 65 66 68 69 70 71 72 72 72 72 72
32 33 34 35 36 36 36 36 37 37 39 40 41 42 43 44 45 46 48 49 51 52 53 55 57 59 61 62 64 65 66 68 69 70 72 72 73 74 74 74 74 73 73
33 34 34 35 36 37 38 38 39 39 40 41 42 44 45 47 48 50 51 53 55 56 58 60 62 63 64 66 67 68 69 70 71 71 71 71 70 70 69 70 71 71 72
33 34 35 36 37 38 39 39 40 41 42 44 45 46 47 48 50 52 55 57 58 60 61 62 63 64 65 65 66 66 67 67 67 66 65 64 63 62 62 62 63 64 65
34 35 35 36 37 39 40 41 42 44 45 46 47 49 51 52 53 55 56 57 59 60 60 61 61 61 61 61 62 61 61 59 58 58 57 56 56 55 54 54 54 54 55
34 36 37 38 39 41 42 43 44 45 46 48 49 51 52 54 55 56 57 57 57 58 58 58 58 58 58 57 56 55 54 52 51 50 49 48 48 48 48 48 47 47 46
36 38 39 40 41 42 43 45 46 47 48 50 51 52 53 54 55 56 55 55 54 54 54 54 54 53 53 51 50 48 46 45 44 42 42 42 41 41 41 40 39 39 39
39 40 41 42 43 44 45 46 47 49 50 51 52 52 52 52 52 52 52 51 50 49 49 48 48 47 45 43 42 40 39 39 38 37 36 36 35 35 34 33 33 32 32
41 42 43 44 45 46 47 48 49 50 50 51 50 50 49 49 49 47 46 45 45 44 43 42 41 40 38 36 35 34 35 34 33 33 32 32 32 30 29 28 27 27 26
43 44 45 46 46 47 47 47 48 48 47 47 46 46 45 44 43 41 40 40 39 39 38 37 36 34 32 31 31 30 30 29 29 28 28 27 26 25 24 22 21 21 21
43 44 45 45 46 46 46 45 45 44 43 42 41 41 39 38 37 36 36 35 34 34 33 31 30 29 29 28 27 27 26 25 24 23 22 21 20 20 19 19 18 18 18
42 42 42 43 43 43 42 41 39 38 37 37 36 35 33 33 32 31 30 29 29 28 27 27 26 26 25 24 24 23 23 21 20 19 18 18 18 17 17 16 16 16 16
40 40 40 40 39 38 36 35 34 33 33 32 31 30 29 28 27 27 26 25 25 25 25 24 23 23 22 22 21 21 21 20 18 17 17 16 16 16 15 15 15 15 15
38 37 37 36 34 33 32 31 30 30 29 28 26 25 25 25 25 24 23 23 23 23 23 22 21 21 20 20 19 19 18 18 17 16 15 15 15 15 15 15 15 16 15
Wind_Direction
203 206 211 216 218 222 225 229 233 237 241 243 245 247 250 251 254 256 259 262 265 267 270 273 275 278 280 281 283 284 284 284 283 282 280 280 280 280 280 280 280 279 277
216 219 223 226 230 233 236 239 241 244 246 247 249 251 254 255 257 259 261 264 267 270 272 274 276 278 280 281 281 282 282 283 283 283 282 281 280 279 278 278 278 277 277
230 233 235 237 238 240 243 246 248 250 251 251 252 254 256 258 260 263 265 267 269 270 272 274 276 277 279 280 281 281 282 282 282 282 282 282 281 279 278 277 277 276 275
244 244 243 244 245 247 250 251 252 253 253 254 256 257 259 261 263 265 267 269 271 272 273 274 275 276 277 278 279 279 279 280 280 281 281 281 281 280 279 277 277 278 277
253 251 254 250 251 252 254 255 255 255 256 256 257 259 261 263 264 266 268 269 270 271 272 272 273 274 275 276 277 278 278 278 279 280 279 279 279 278 277 276 276 276 277
260 262 264 256 261 262 259 261 258 258 258 259 260 262 264 266 267 267 268 269 270 270 271 272 272 273 274 275 276 276 276 277 278 278 278 278 277 276 276 276 276 276 275
270 270 272 270 273 271 268 267 262 263 266 266 266 266 267 268 269 268 269 271 272 272 273 274 274 273 274 275 275 275 275 275 276 276 277 277 277 276 276 276 276 276 275
278 279 279 275 275 274 272 270 271 271 272 272 270 270 272 272 273 273 274 273 274 274 274 274 275 274 275 274 274 274 274 274 275 275 276 276 276 276 276 276 276 276 275
282 284 282 282 280 281 282 279 275 274 276 275 274 274 274 273 273 272 273 273 272 273 274 274 274 273 273 273 273 273 273 273 273 274 275 275 275 275 275 275 275 275 274
285 286 284 284 283 284 283 283 282 280 280 279 278 277 277 275 273 273 273 274 274 274 274 274 274 274 273 273 273 273 273 273 274 274 275 276 275 275 275 275 275 274 274
289 288 287 287 286 285 285 285 284 284 283 281 280 279 277 276 275 275 275 275 275 275 276 276 277 276 276 276 277 276 276 276 275 275 275 276 276 276 276 275 275 275 274
288 288 288 288 287 286 286 286 286 284 283 282 281 279 278 278 277 277 277 277 277 278 278 278 278 278 279 280 280 280 280 279 279 278 278 277 277 276 275 275 274 274 274
287 288 288 289 288 287 287 288 286 284 283 282 281 280 280 280 279 279 279 279 280 280 280 280 280 280 281 280 280 280 280 280 280 279 279 278 278 277 276 275 274 273 272
286 287 289 289 288 288 288 288 287 286 284 284 284 284 283 283 282 282 281 281 282 282 282 282 282 282 282 282 281 281 281 280 280 280 279 279 278 277 276 275 274 273 272
287 288 288 288 289 288 288 288 287 287 286 285 284 284 285 284 284 283 284 284 283 284 284 284 284 284 284 284 283 283 282 282 281 281 280 279 278 277 277 276 275 274 273
289 290 290 290 290 289 288 288 287 287 287 287 286 286 286 286 285 286 286 286 286 286 286 286 285 285 284 284 284 283 283 282 282 282 282 281 280 280 279 278 277 275 274
290 291 292 292 292 291 291 290 289 289 289 288 288 288 287 287 287 287 287 286 287 287 287 286 286 286 286 286 286 285 285 285 284 284 283 283 282 281 281 280 279 278 276
292 292 293 293 293 293 292 291 290 290 289 289 289 289 289 289 289 289 288 288 288 288 288 288 287 288 288 288 288 287 287 286 286 285 285 284 284 283 283 282 281 280 279
293 294 294 294 294 294 293 293 292 291 291 291 291 290 290 289 290 290 290 289 289 289 290 290 290 290 290 290 289 288 288 287 287 286 287 287 287 287 286 285 284 283 281
296 296 295 295 295 294 293 293 292 292 292 292 292 291 291 291 291 291 291 290 291 292 292 293 293 293 292 292 291 290 290 290 289 289 289 289 289 289 288 287 285 285 284
297 296 295 295 294 294 294 294 294 294 293 293 292 292 291 291 291 291 291 292 293 294 295 295 295 294 294 294 293 292 292 292 290 289 290 291 290 291 290 289 287 287 288
297 297 296 296 295 295 296 296 296 296 296 295 294 293 293 293 293 293 294 294 295 296 297 297 297 296 295 294 294 295 295 294 292 292 292 292 292 292 292 292 290 292 292
297 297 297 297 298 298 298 299 299 298 297 297 297 296 296 295 295 296 297 298 298 300 300 300 299 299 299 297 297 297 297 296 294 293 293 294 294 294 295 294 293 295 296
300 300 300 300 300 301 301 301 301 300 300 300 300 299 298 298 298 299 300 300 302 303 304 303 302 303 303 300 300 300 301 302 299 297 294 293 294 295 296 296 295 294 295
302 302 302 302 302 302 302 302 303 304 304 304 303 302 301 301 301 303 303 304 305 306 307 307 305 305 306 304 303 303 303 305 304 302 299 296 295 295 296 296 296 296 295
303 304 305 305 304 304 304 305 306 306 307 307 306 305 305 305 305 306 305 306 307 308 310 311 311 310 310 310 309 308 308 308 308 306 303 300 297 296 296 295 295 295 295
Height
5844 5846 5848 5850 5851 5853 5855 5856 5857 5858 5859 5860 5861 5861 5862 5862 5862 5863 5863 5863 5862 5862 5861 5861 5860 5859 5858 5858 5857 5856 5856 5855 5855 5854 5854 5853 5852 5851 5850 5849 5848 5847 5846
5843 5845 5846 5848 5849 5850 5851 5852 5853 5854 5855 5855 5856 5856 5857 5857 5857 5857 5857 5857 5857 5856 5855 5855 5854 5853 5852 5851 5850 5849 5849 5848 5848 5847 5846 5845 5844 5843 5842 5841 5840 5839 5838
5842 5843 5844 5845 5846 5847 5848 5849 5849 5850 5850 5850 5851 5851 5851 5851 5851 5851 5851 5850 5850 5849 5849 5848 5847 5846 5845 5844 5843 5842 5841 5840 5839 5839 5838 5836 5835 5834 5833 5832 5831 5830 5830
5839 5840 5841 5842 5842 5843 5843 5844 5844 5844 5845 5845 5845 5845 5845 5845 5844 5844 5844 5843 5843 5842 5841 5840 5839 5838 5837 5835 5834 5833 5832 5831 5830 5829 5828 5827 5826 5824 5823 5822 5821 5820 5820
5836 5836 5836 5836 5837 5837 5838 5838 5838 5838 5838 5838 5838 5837 5837 5837 5837 5836 5835 5835 5834 5833 5833 5831 5830 5829 5828 5826 5825 5824 5822 5821 5820 5819 5818 5817 5816 5814 5812 5811 5810 5810 5809
5831 5831 5831 5830 5831 5831 5831 5831 5831 5831 5830 5830 5830 5829 5828 5829 5828 5827 5827 5826 5825 5824 5823 5821 5820 5819 5818 5816 5815 5814 5812 5811 5809 5807 5806 5805 5804 5802 5800 5799 5798 5798 5798
5826 5826 5825 5824 5825 5825 5824 5824 5823 5823 5823 5822 5821 5820 5820 5820 5819 5818 5817 5816 5815 5814 5813 5811 5810 5808 5807 5805 5804 5802 5801 5799 5797 5795 5794 5793 5792 5790 5788 5786 5785 5784 5784
5821 5820 5819 5819 5818 5817 5817 5817 5816 5816 5815 5814 5812 5812 5811 5810 5809 5809 5807 5806 5804 5803 5801 5800 5798 5797 5795 5793 5791 5790 5788 5786 5784 5781 5780 5779 5778 5776 5774 5772 5770 5769 5770
5815 5814 5813 5812 5811 5810 5809 5808 5807 5807 5806 5804 5803 5802 5801 5800 5799 5798 5796 5794 5793 5791 5789 5787 5786 5784 5782 5780 5778 5776 5775 5773 5770 5767 5766 5764 5763 5761 5758 5756 5755 5753 5753
5808 5807 5806 5805 5803 5803 5802 5800 5799 5798 5796 5795 5793 5792 5790 5788 5787 5785 5784 5782 5780 5778 5776 5773 5771 5770 5768 5765 5763 5762 5760 5758 5756 5753 5751 5749 5746 5744 5741 5739 5737 5735 5734
5801 5799 5798 5797 5795 5794 5792 5791 5789 5788 5786 5784 5782 5780 5778 5776 5775 5773 5771 5769 5767 5765 5762 5760 5757 5755 5753 5750 5748 5745 5743 5741 5739 5737 5735 5732 5729 5726 5723 5720 5717 5715 5714
5793 5791 5790 5788 5787 5785 5783 5781 5779 5777 5775 5773 5771 5769 5766 5764 5763 5760 5758 5756 5754 5751 5749 5746 5743 5740 5737 5734 5731 5728 5725 5722 5720 5718 5715 5713 5710 5707 5703 5699 5696 5693 5692
5784 5783 5781 5779 5777 5775 5773 5771 5768 5766 5765 5762 5760 5757 5755 5752 5750 5747 5745 5742 5739 5737 5734 5730 5727 5724 5720 5717 5713 5709 5705 5702 5699 5696 5693 5690 5686 5683 5679 5676 5673 5670 5669
5775 5773 5771 5769 5767 5765 5762 5760 5758 5756 5753 5751 5748 5745 5742 5739 5736 5733 5730 5727 5724 5720 5717 5713 5709 5705 5701 5697 5693 5688 5684 5680 5676 5672 5669 5665 5661 5657 5653 5650 5647 5645 5644
5766 5764 5761 5759 5756 5754 5751 5749 5746 5744 5741 5738 5735 5731 5728 5725 5721 5718 5714 5710 5707 5703 5699 5694 5690 5685 5680 5675 5670 5665 5660 5656 5651 5647 5643 5639 5635 5632 5628 5624 5621 5619 5618
5756 5753 5751 5748 5746 5743 5740 5737 5734 5731 5727 5724 5721 5717 5713 5710 5705 5701 5697 5693 5688 5684 5679 5674 5669 5664 5659 5653 5648 5643 5637 5632 5627 5623 5619 5615 5612 5608 5605 5602 5597 5595 5593
5746 5743 5740 5737 5734 5731 5728 5725 5721 5717 5714 5710 5706 5702 5698 5693 5689 5684 5679 5674 5669 5664 5659 5654 5649 5643 5638 5632 5627 5622 5617 5611 5606 5602 5598 5595 5591 5588 5585 5582 5578 5575 5573
5736 5733 5729 5726 5722 5719 5715 5711 5708 5703 5699 5695 5690 5685 5681 5676 5671 5666 5661 5656 5651 5645 5640 5634 5629 5624 5618 5613 5607 5602 5598 5593 5589 5585 5581 5577 5573 5570 5567 5564 5561 5558 5555
5725 5721 5718 5714 5710 5706 5702 5697 5693 5689 5684 5679 5675 5669 5664 5658 5653 5648 5643 5638 5632 5627 5622 5616 5611 5605 5600 5595 5590 5585 5581 5577 5573 5569 5566 5563 5559 5555 5552 5550 5547 5544 5541
5713 5709 5705 5701 5697 5692 5688 5683 5678 5673 5668 5663 5658 5653 5647 5641 5636 5631 5625 5621 5616 5611 5606 5600 5595 5589 5584 5580 5575 5571 5567 5564 5560 5557 5553 5550 5547 5543 5541 5538 5536 5533 5530
5700 5696 5692 5688 5683 5678 5673 5668 5663 5657 5652 5646 5641 5636 5631 5626 5621 5616 5611 5606 5601 5597 5592 5587 5581 5576 5572 5567 5563 5560 5556 5552 5549 5545 5542 5539 5536 5533 5531 5529 5526 5524 5522
5687 5682 5678 5673 5668 5663 5658 5653 5647 5642 5636 5631 5626 5621 5616 5611 5607 5602 5598 5593 5589 5584 5579 5574 5570 5565 5561 5557 5553 5550 5546 5542 5539 5536 5533 5530 5527 5525 5523 5521 5519 5517 5515
5673 5668 5664 5659 5653 5648 5643 5638 5632 5627 5622 5617 5612 5607 5603 5598 5594 5590 5586 5582 5577 5573 5568 5564 5560 5556 5552 5548 5545 5541 5538 5534 5531 5528 5525 5523 5521 5519 5517 5515 5513 5511 5510
5660 5655 5650 5645 5639 5634 5629 5624 5619 5615 5610 5605 5601 5596 5592 5588 5584 5580 5576 5572 5568 5564 5560 5556 5552 5548 5544 5540 5537 5534 5530 5527 5524 5522 5520 5518 5516 5514 5512 5510 5509 5507 5505
5647 5642 5637 5632 5627 5622 5618 5613 5609 5604 5600 5595 5591 5587 5583 5579 5576 5572 5568 5564 5561 5557 5553 5549 5545 5541 5538 5534 5531 5528 5525 5522 5519 5517 5515 5513 5511 5509 5508 5506 5505 5503 5502
5636 5631 5626 5621 5616 5612 5608 5604 5599 5595 5591 5587 5583 5579 5575 5572 5568 5564 5561 5557 5554 5550 5546 5542 5539 5535 5532 5528 5525 5522 5519 5517 5514 5512 5510 5508 5507 5505 5504 5502 5501 5499 5498